Weather reports worldwide

Advertisment
Lyon/Bron, France (7480): temperature & dewpoint: 06.12.2019 11:00:00 - 12.12.2019 11:00:00 (CET)Lyon/Bron, France (7480): temperature 5cm: 06.12.2019 11:00:00 - 12.12.2019 11:00:00 (CET)Lyon/Bron, France (7480): temperature -20cm: 06.12.2019 11:00:00 - 12.12.2019 11:00:00 (CET)Lyon/Bron, France (7480): wind speed & gusts: 06.12.2019 11:00:00 - 12.12.2019 11:00:00 (CET)Lyon/Bron, France (7480): wind direction: 06.12.2019 11:00:00 - 12.12.2019 11:00:00 (CET)Lyon/Bron, France (7480): reduced air pressure: 06.12.2019 11:00:00 - 12.12.2019 11:00:00 (CET)Lyon/Bron, France (7480): visibility: 06.12.2019 11:00:00 - 12.12.2019 11:00:00 (CET)Lyon/Bron, France (7480): sunshine duration: 06.12.2019 11:00:00 - 12.12.2019 11:00:00 (CET)Lyon/Bron, France (7480): precipitation: 06.12.2019 11:00:00 - 12.12.2019 11:00:00 (CET)
Date & Time tt [°C] td [°C] tt 5cm [°C] tt -20cm [°C] ff [km/h] ff [kn] fx [km/h] fx [kn] dd ppp [hPa] vv [km] sd [min] rr [mm]
12.12.2019 11:00:00 6,4 -0,1 5,5 6,1 5 3 11 6 S 1011,8 58 12 0,0
12.12.2019 10:00:00 4,8 0,9 3,7 6,1 7 4 11 6 SSE 1012,1 48 0 0,0
12.12.2019 09:00:00 4,3 0,6 2,3 6,2 6 3 11 6 SE 1012,5 58 0 0,0
12.12.2019 08:00:00 3,9 0,6 2,5 6,2 7 4 10 6 S 1012,7 58 0 0,0
12.12.2019 07:00:00 3,4 1,0 1,9 6,2 5 3 14 7 S 1012,8 59 0 0,0
12.12.2019 06:00:00 2,5 0,6 0,4 6,3 11 6 16 9 SE 1012,7 54 0 0,0
12.12.2019 05:00:00 1,8 0,9 -0,9 6,3 5 3 9 5 E 1012,9 33 0 0,0
12.12.2019 04:00:00 2,2 1,2 -0,8 6,4 4 2 9 5 SW 1012,4 48 0 0,0
12.12.2019 03:00:00 4,0 2,3 1,9 6,4 8 4 23 12 W 1012,3 55 0 0,0
12.12.2019 02:00:00 4,5 3,0 3,2 6,4 6 3 18 10 NNW 1012,0 57 0 0,0
12.12.2019 01:00:00 4,4 2,9 3,4 6,4 13 7 23 13 S 1011,5 32 0 0,0
12.12.2019 00:00:00 3,8 2,8 2,3 6,5 12 6 20 11 S 1011,8 33 0 0,0
11.12.2019 23:00:00 3,0 2,3 2,1 6,5 7 4 20 11 SSE 1012,1 11 0 0,0
11.12.2019 22:00:00 3,6 2,9 2,4 6,5 8 4 12 7 SSE 1012,8 7 0 0,0
11.12.2019 21:00:00 3,9 3,0 2,1 6,5 5 3 9 5 S 1014,0 13 0 0,0
11.12.2019 20:00:00 4,6 3,4 3,4 6,5 7 4 14 8 S 1014,7 20 0 0,0
11.12.2019 19:00:00 4,9 3,9 3,8 6,5 6 4 12 7 SSE 1015,4 0,7 0 0,0
11.12.2019 18:00:00 4,9 4,3 4,2 6,5 5 3 12 7 SSE 1015,9 10 0 0,2
11.12.2019 17:00:00 5,1 4,5 4,2 6,5 8 4 18 10 SE 1015,5 8 0 0,4
11.12.2019 16:00:00 5,0 4,3 4,0 6,5 5 3 14 7 SSE 1015,1 6 0 2,0
11.12.2019 15:00:00 4,4 3,4 3,7 6,5 4 2 6 3 NNW 1014,3 4,0 0 3,1
11.12.2019 14:00:00 4,4 2,7 3,6 6,4 2 1 11 6 W 1013,8 3,9 0 1,8
11.12.2019 13:00:00 4,2 1,9 3,2 6,5 6 4 14 7 SSE 1014,0 13 0 1,4
11.12.2019 12:00:00 3,9 0,9 2,5 6,4 4 2 16 9 SSE 1014,7 12 0 0,0
11.12.2019 11:00:00 3,4 0,8 2,6 6,5 8 4 14 8 SE 1015,5 12 0 0,2
11.12.2019 10:00:00 3,0 -0,5 2,4 6,5 3 2 9 5 ESE 1016,5 20 0 0,0
11.12.2019 09:00:00 2,5 -0,4 2,3 6,5 6 3 9 5 SSW 1016,9 20 0 0,0
11.12.2019 08:00:00 2,7 -0,4 2,0 6,6 6 3 9 5 S 1017,4 31 0 0,0
11.12.2019 07:00:00 2,8 -0,7 2,0 6,6 2 1 8 4 E 1018,2 34 0 0,0
11.12.2019 06:00:00 2,5 -0,4 1,8 6,6 4 2 16 9 S 1018,9 35 0 0,0
11.12.2019 05:00:00 2,0 -0,3 0,9 6,7 10 5 16 9 SE 1019,6 25 0 0,0
11.12.2019 04:00:00 1,5 -0,4 0,3 6,8 5 3 9 5 SE 1020,6 19 0 0,0
11.12.2019 03:00:00 1,4 -0,4 0,6 6,9 5 3 8 5 SSE 1021,1 16 0 0,0
11.12.2019 02:00:00 1,2 -0,7 0,3 7,0 2 1 6 4 SSE 1021,6 16 0 0,0
11.12.2019 01:00:00 0,9 -0,9 -0,8 7,1 5 3 10 6 S 1022,5 16 0 0,0
11.12.2019 00:00:00 0,2 -1,1 -2,5 7,2 8 4 10 6 SW 1023,6 17 0 0,0
10.12.2019 23:00:00 -0,3 -1,3 -3,0 7,3 3 2 5 3 S 1023,8 12 0 0,0
10.12.2019 22:00:00 0,2 -1,2 -2,7 7,4 4 2 9 5 SE 1024,4 10 0 0,0
10.12.2019 21:00:00 0,6 -0,9 -2,4 7,5 3 1 6 3 S 1025,3 15 0 0,0
10.12.2019 20:00:00 1,5 -0,7 -1,8 7,6 0 0 8 4 N 1025,5 18 0 0,0
10.12.2019 19:00:00 2,1 -0,5 -1,5 7,6 3 2 6 4 NNW 1025,8 20 0 0,0
10.12.2019 18:00:00 3,4 -0,6 -0,3 7,6 2 1 10 5 N 1026,0 20 0 0,0
10.12.2019 17:00:00 5,0 -0,4 2,7 7,5 7 4 16 9 NNE 1025,8 44 15 0,0
10.12.2019 16:00:00 6,9 -0,1 9,0 7,5 11 6 21 11 N 1026,4 44 60 0,0
10.12.2019 15:00:00 7,9 -0,3 10,3 7,4 15 8 24 13 NNE 1026,7 56 60 0,0
10.12.2019 14:00:00 8,0 0,2 9,6 7,3 19 10 36 19 NNW 1027,6 20 60 0,0
10.12.2019 13:00:00 7,3 -0,7 9,7 7,4 17 9 29 16 N 1028,5 42 60 0,0
10.12.2019 12:00:00 6,8 0,5 9,2 7,4 19 10 29 16 NNW 1029,4 20 60 0,0
10.12.2019 11:00:00 6,3 0,8 4,8 7,5 22 12 30 16 NNW 1029,9 20 60 0,0
10.12.2019 10:00:00 4,9 0,1 3,3 7,5 18 10 27 14 NNW 1030,4 42 60 0,0
10.12.2019 09:00:00 3,6 0,5 2,0 7,6 11 6 19 10 N 1030,7 34 18 0,0
10.12.2019 08:00:00 3,4 -0,3 1,7 7,7 10 5 16 9 ENE 1029,9 39 0 0,0
10.12.2019 07:00:00 4,8 -0,2 3,5 7,7 11 6 35 19 NNW 1029,5 47 0 0,0
10.12.2019 06:00:00 5,8 -0,1 4,9 7,8 24 13 36 20 NW 1028,9 49 0 0,0
10.12.2019 05:00:00 5,9 0,4 5,2 7,8 24 13 38 20 NW 1028,5 49 0 0,0
10.12.2019 04:00:00 6,2 0,7 5,4 7,8 28 15 43 23 NNW 1028,0 50 0 0,0
10.12.2019 03:00:00 6,1 0,8 5,4 7,9 26 14 44 24 NNW 1027,4 54 0 0,0
10.12.2019 02:00:00 6,4 1,3 5,7 7,9 26 14 44 24 NW 1026,5 57 0 0,0
10.12.2019 01:00:00 6,5 1,8 5,5 8,0 28 15 41 22 NW 1025,4 58 0 0,0
10.12.2019 00:00:00 6,6 2,7 5,1 8,0 17 9 26 14 NNW 1024,9 57 0 0,0
09.12.2019 23:00:00 6,5 2,6 4,3 8,1 19 10 53 28 NNW 1024,0 59 0 0,4
09.12.2019 22:00:00 6,8 2,9 5,8 8,1 33 18 54 29 N 1023,1 7 0 0,0
09.12.2019 21:00:00 7,5 3,0 6,7 8,1 16 9 41 22 NNW 1021,8 60 0 0,0
09.12.2019 20:00:00 7,8 3,1 6,7 8,1 26 14 42 23 NNW 1020,3 60 0 0,0
09.12.2019 19:00:00 7,9 3,4 6,7 8,1 19 11 35 19 NW 1018,9 59 0 0,0
09.12.2019 18:00:00 7,6 3,4 6,1 8,1 18 10 46 25 WNW 1017,8 58 0 0,0
09.12.2019 17:00:00 8,5 5,1 6,6 8,1 31 17 57 31 NW 1016,3 7 0 0,4
09.12.2019 16:00:00 10,1 3,8 9,5 8,0 21 11 46 25 W 1014,8 59 0 0,0
09.12.2019 15:00:00 9,7 4,5 7,9 7,9 16 9 43 23 W 1014,1 60 0 0,0
09.12.2019 14:00:00 9,9 4,9 8,6 7,9 18 10 43 23 WSW 1013,8 56 1 0,2
09.12.2019 13:00:00 10,5 5,0 7,6 7,9 18 10 43 23 SSW 1013,7 59 5 0,0
09.12.2019 12:00:00 9,2 5,2 7,7 7,9 17 9 32 17 SSW 1014,1 18 2 0,0
09.12.2019 11:00:00 8,3 5,2 7,6 7,9 22 12 31 17 S 1014,3 20 0 0,0
09.12.2019 10:00:00 7,9 5,0 6,7 8,0 18 10 24 13 S 1014,1 54 0 0,0
09.12.2019 09:00:00 7,3 4,4 5,7 8,0 10 5 18 10 S 1014,4 59 0 0,0
09.12.2019 08:00:00 7,0 4,5 5,4 8,1 12 7 19 11 S 1014,2 51 0 0,0
09.12.2019 07:00:00 7,5 4,6 4,7 8,1 15 8 21 12 S 1014,5 59 0 0,0
09.12.2019 06:00:00 7,9 5,0 6,0 8,1 11 6 28 15 SW 1015,0 19 0 0,4
09.12.2019 05:00:00 7,9 2,8 5,6 8,2 11 6 21 12 S 1014,9 53 0 0,0
09.12.2019 04:00:00 8,8 2,4 5,9 8,2 14 7 28 15 SSW 1014,6 59 0 0,0
09.12.2019 03:00:00 8,0 4,8 6,2 8,2 12 7 24 13 SSE 1015,4 37 0 0,0
09.12.2019 02:00:00 8,9 5,3 7,2 8,2 9 5 16 9 WSW 1016,3 45 0 0,0
09.12.2019 01:00:00 8,9 6,7 7,2 8,2 4 2 28 15 W 1016,9 28 0 0,0
09.12.2019 00:00:00 9,7 6,8 7,9 8,2 3 1 24 13 W 1015,9 41 0 0,0
08.12.2019 23:00:00 10,1 6,8 9,1 8,2 13 7 31 17 S 1015,3 47 0 0,0
08.12.2019 22:00:00 10,4 6,9 9,1 8,2 23 12 39 21 S 1015,0 58 0 0,0
08.12.2019 21:00:00 10,3 7,2 8,4 8,2 23 12 35 19 S 1015,3 47 0 0,0
08.12.2019 20:00:00 9,9 7,3 8,4 8,1 17 9 32 18 S 1015,7 31 0 0,8
08.12.2019 19:00:00 10,6 6,5 8,3 8,1 17 9 37 20 S 1015,5 19 0 0,2
08.12.2019 18:00:00 11,3 5,8 8,7 8,0 23 12 37 20 SSE 1014,3 10 0 0,0
08.12.2019 17:00:00 11,7 5,1 10,5 7,9 17 9 28 15 S 1015,7 60 0 0,0
08.12.2019 16:00:00 12,0 5,4 11,3 7,9 10 6 25 14 S 1016,0 54 0 0,0
08.12.2019 15:00:00 12,6 4,8 12,3 7,7 18 10 32 17 S 1016,0 59 12 0,0
08.12.2019 14:00:00 13,8 4,9 13,6 7,6 19 11 34 18 S 1016,7 60 53 0,0
08.12.2019 13:00:00 13,0 4,9 13,9 7,5 16 9 26 14 S 1017,9 43 57 0,0
08.12.2019 12:00:00 11,9 4,8 13,5 7,5 15 8 22 12 S 1018,9 39 53 0,0
08.12.2019 11:00:00 11,0 4,7 8,4 7,5 4 2 8 4 SSW 1019,8 20 60 0,0
08.12.2019 10:00:00 7,6 5,6 5,6 7,5 2 1 8 5 S 1020,2 16 24 0,0
08.12.2019 09:00:00 6,1 4,6 3,3 7,5 4 2 11 6 SSE 1020,4 13 17 0,0
08.12.2019 08:00:00 6,3 4,6 3,7 7,6 2 1 13 7 SE 1020,5 10 0 0,0
08.12.2019 07:00:00 7,3 5,4 6,7 7,6 8 4 12 7 ESE 1020,4 10 0 0,0
08.12.2019 06:00:00 7,2 5,5 6,5 7,5 0 0 4 2 N 1020,7 9 0 0,0
08.12.2019 05:00:00 7,4 5,5 6,7 7,6 4 2 11 6 SSE 1020,7 9 0 0,0
08.12.2019 04:00:00 7,5 5,5 6,6 7,6 9 5 15 8 ESE 1021,2 10 0 0,0
08.12.2019 03:00:00 7,4 5,4 6,7 7,6 6 4 13 7 SSE 1021,9 9 0 0,0
08.12.2019 02:00:00 7,6 5,7 6,3 7,5 9 5 12 7 SE 1021,9 7 0 0,0
08.12.2019 01:00:00 8,1 5,9 7,3 7,6 0 0 11 6 N 1022,1 8 0 0,0
08.12.2019 00:00:00 8,4 5,9 7,5 7,6 5 3 13 7 WNW 1022,8 8 0 0,0
07.12.2019 23:00:00 8,4 5,7 7,1 7,5 7 4 21 11 SSW 1022,8 8 0 0,0
07.12.2019 22:00:00 8,4 5,9 7,4 7,5 8 4 14 8 E 1022,7 7 0 0,0
07.12.2019 21:00:00 8,5 5,9 7,3 7,5 2 1 6 4 WSW 1022,6 9 0 0,0
07.12.2019 20:00:00 8,8 5,9 7,3 7,4 2 1 6 4 S 1022,6 9 0 0,0
07.12.2019 19:00:00 8,8 5,4 7,1 7,4 2 1 3 2 ENE 1022,6 9 0 0,0
07.12.2019 18:00:00 9,2 5,4 6,3 7,2 3 2 8 5 SSE 1022,1 11 0 0,0
07.12.2019 17:00:00 10,3 5,1 7,5 7,1 2 1 6 3 S 1021,8 15 0 0,0
07.12.2019 16:00:00 10,9 5,6 10,8 7,0 4 2 15 8 NNE 1021,6 15 0 0,0
07.12.2019 15:00:00 11,7 5,6 12,3 6,8 9 5 11 6 N 1021,3 12 14 0,0
07.12.2019 14:00:00 13,0 4,7 13,4 6,6 2 1 9 5 ENE 1021,1 20 14 0,0
07.12.2019 13:00:00 11,7 4,7 12,7 6,5 0 0 6 4 N 1021,7 19 21 0,0
07.12.2019 12:00:00 9,4 4,0 9,9 6,5 4 2 8 4 NNW 1022,5 15 2 0,0
07.12.2019 11:00:00 8,3 4,1 8,7 6,4 3 2 6 4 N 1022,9 14 4 0,0
07.12.2019 10:00:00 6,9 4,2 6,2 6,4 3 2 8 5 S 1022,7 16 10 0,0
07.12.2019 09:00:00 4,8 3,8 3,8 6,4 4 2 7 4 SSE 1022,7 12 11 0,0
07.12.2019 08:00:00 4,3 3,3 3,3 6,4 3 2 7 4 SE 1022,4 12 0 0,0
07.12.2019 07:00:00 4,1 3,4 1,4 6,4 2 1 5 3 NNE 1021,7 6 0 0,0
07.12.2019 06:00:00 4,5 3,3 2,3 6,4 3 1 6 4 NE 1021,2 6 0 0,0
07.12.2019 05:00:00 5,1 3,9 4,4 6,4 3 2 7 4 NW 1021,0 4,9 0 0,0
07.12.2019 04:00:00 4,9 3,7 4,1 6,4 3 1 7 4 NNW 1021,1 5 0 0,0
07.12.2019 03:00:00 5,0 3,7 4,2 6,4 4 2 11 6 E 1021,2 6 0 0,0
07.12.2019 02:00:00 5,1 3,6 4,4 6,4 3 1 10 5 N 1021,0 4,9 0 0,0
07.12.2019 01:00:00 4,9 3,4 4,0 6,4 10 5 13 7 NW 1021,5 5 0 0,0
07.12.2019 00:00:00 4,5 2,8 3,6 6,4 3 2 8 4 ESE 1021,3 7 0 0,0
06.12.2019 23:00:00 4,0 2,5 3,0 6,5 4 2 8 4 W 1021,7 6 0 0,0
06.12.2019 22:00:00 3,9 2,4 2,2 6,5 3 2 6 4 ESE 1021,5 5 0 0,0
06.12.2019 21:00:00 3,4 1,9 1,3 6,5 3 1 6 3 N 1021,2 5 0 0,0
06.12.2019 20:00:00 3,4 1,4 1,4 6,5 2 1 4 2 ENE 1021,1 6 0 0,0
06.12.2019 19:00:00 4,1 2,1 0,6 6,5 3 2 5 3 WSW 1021,0 8 0 0,0
06.12.2019 18:00:00 4,8 2,2 1,3 6,4 2 1 5 3 SSE 1020,9 10 0 0,0
06.12.2019 17:00:00 6,9 2,4 3,7 6,2 4 2 6 4 SSE 1020,9 12 0 0,0
06.12.2019 16:00:00 8,7 2,7 9,3 6,1 2 1 9 5 S 1020,9 14 53 0,0
06.12.2019 15:00:00 9,1 3,1 11,1 6,0 5 3 13 7 S 1021,3 15 60 0,0
06.12.2019 14:00:00 7,8 2,3 10,0 5,8 3 2 13 7 NNW 1022,2 10 60 0,0
06.12.2019 13:00:00 5,6 2,2 7,7 5,7 5 3 13 7 SW 1023,1 13 60 0,0
06.12.2019 12:00:00 2,6 1,9 4,5 5,7 6 3 16 9 SSE 1024,4 7 47 0,0
06.12.2019 11:00:00 0,4 0,4 -0,5 5,7 3 2 8 4 NNW 1025,5 2,2 27 0,0

tt = temperature
td = dewpoint
tt 5cm = temperature 5cm
tt -20cm = temperature -20cm
ff = wind speed
fx = gusts
dd = wind direction
ppp = reduced air pressure
vv = visibility
sd = sunshine duration
rr = precipitation

Next stations